Погода в Рославле

Хотите узнать прогноз погоды в Рославле? Тогда Вам сюда: Погода в Рославле

Поиск расширенной информации на нашем сайте:

Полезная информация:

Новости сайта



02.01.2020
Опубликован Долгосрочный прогноз погоды по городам России и ближнего зарубежья на январь 2020 года.
Карты: Прогноз на январь и февраль 2020 года, Сравнение прогнозируемой аномалии приземной температуры воздуха на январь 2020 года по разным моделям.




Погода в Рославле - сегодня

Время (UTC), дата Ветер
(°,м/с) 
Видим.   Явления Облачность Т
(°С)
Тd
(°С)
f(%) Тe
(°С)
Pmin
(гПа)
dP
(гПа)
Po
(мм)
O2
(г/м3)
Тmin Tmax R s Состояние
почвы
15 02.07.20 130 (ЮВ) 2{12}  10 км  гроза, ливневой дождь  9/8 600 м кучево-дожд., средняя 
[Cb cap|Ac cuf]
+19.7 +16.7 83 +33  1010.4  -0.1  738  274         
18 02.07.20 170 (Ю) 20000 м  в посл. час гроза{ливн. осадки}  6/3 300 м средняя, верхняя 
[Cu med, cong|Ac cuf|Ci fib]
+17.7 +16.5 93 +31  1011.1  0.5  739  276    +27.1     
21 02.07.20 210 (ЮЗ) 20000 м    9/0 средняя, верхняя 
[Ac trans|Ci fib]
+18 +15.9 88 +30  1011.4  0.3  739  276           
00 03.07.20 210 (ЮЗ) 20000 м    8/0 средняя, верхняя 
[Ac trans|Ci fib]
+17.1 +15.6 91 +28  1011.7  0.1  739  277           
03 03.07.20 220 (ЮЗ) 20000 м    9/8 480 м средняя, верхняя 
[Sc|Ac trans|Ci fib]
+17.3 +15.9 91 +30  1012.4  0.7  740  277  +16.5       
06 03.07.20 200 (Ю) 20000 м    8/0 средняя, верхняя 
[Ac trans|Cc]
+22.2 +18.7 81 +38  1012.2  0.3  740  271  +16.5        мокрая 
09 03.07.20 300 (СЗ) 20000 м  {ливн. осадки}  8/3 600 м средняя, верхняя 
[Cu med, cong|Ac trans|Cc]
+25.3 +19 68 +42  1012.1  0.2  740  268           
12 03.07.20 310 (СЗ) 3{17}  20000 м  гроза без осадков{ливн. осадки}  9/9 600 м кучево-дожд., средняя 
[Cb calv|Ac cuf]
+21.2 +18.5 85 +37  1012  -0.5  740  272           
15 03.07.20 160 (Ю) 1{17}  20000 м  слаб. ливневой дождь{гроза}  9/6 600 м кучево-дожд., средняя, верхняя 
[Cb cap|Ac As|Cs]
+18.9 +17.1 89 +33  1012.3  0.1  740  275      16     
18 03.07.20 110 (В) 20000 м  {гроза, ливн. осадки}  9/8 600 м средняя 
[Sc diur, vesp|As trans]
+19 +17.7 92 +35  1011.9  -0.4  739  274    +26.6  17     
21 03.07.20 290 (З) 20000 м  гроза без осадков  10/10 600 м кучево-дожд. 
[Cb calv]
+18.5 +17.7 95 +33  1013.3  1.4  740  275           
00 04.07.20 070 (В) 1000 м  дымка{гроза}  9/0 средняя, верхняя 
[Ac As|Ci fib]
+17 +16.2 95 +29  1012.2  -1.3  740  277           
03 04.07.20 360 (С) 1{11}  20000 м    10/10 480 м 
[Sc]
+17.7 +16.3 92 +30  1013  0.7  740  276  +17    0.3     
06 04.07.20 140 (ЮВ) 20000 м  {ливн. осадки}  10/10 480 м 
[Sc]
+18.5 +16.8 90 +32  1013.2  0.3  740  276  +17    0.5    влажная 
09 04.07.20 350 (С) 20000 м  слаб. ливневой дождь  10/3 300 м средняя 
[Cu med, cong|Ac cuf]
+19.5 +17.3 87 +33  1013.3  0.2  740  275           
12 04.07.20 010 (С) 20000 м  {ливн. осадки}  9/8 480 м средняя, верхняя 
[Cu med, cong|Ac trans|Ci fib]
+22.6 +16.9 70 +35  1013.2  0.2  741  272           
15 04.07.20 330 (СЗ) 20000 м    9/8 480 м средняя, верхняя 
[Sc diur, vesp|Ac trans|Cs]
+22.6 +17.4 72 +36  1012.9  -0.3  740  272         
18 04.07.20 тихо ()   20000 м    9/0 средняя, верхняя 
[Ac trans|Cs]
+19.4 +17.6 89 +33  1013.1  740  275    +23.1     
21 04.07.20 280 (З) 4000 м  дымка  9/0 средняя, верхняя 
[Ac trans|Cs]
+17.8 +16.9 94 +32  1013.7  0.4  741  276           
00 05.07.20 тихо ()   20000 м    9/0 средняя, верхняя 
[Ac trans|Ci fib]
+17.7 +16.6 93 +30  1013.5  -0.2  741  277           
03 05.07.20 тихо ()   10 км    9/0 средняя, верхняя 
[Ac trans|Cs]
+17.7 +16.9 95 +30  1013.3  -0.2  740  276  +16.1         
06 05.07.20 180 (Ю) 10 км    9/0 средняя, верхняя 
[Ac As|Cs]
+21.5 +17 76 +34  1012.8  -0.2  740  273  +16.1        влажная 
09 05.07.20 200 (Ю) 20000 м    9/8 600 м средняя 
[Cu med, cong|Ac As]
+22.4 +17.9 76 +37  1012.6  -0.1  740  272           
12 05.07.20 250 (З) 20000 м    9/5 600 м средняя, верхняя 
[Cu med, cong|Ac trans|Ci fib]
+23.4 +17 67 +36  1011.8  -0.7  740  271           
15 05.07.20 220 (ЮЗ) 20000 м    8/6 600 м средняя, верхняя 
[Cu med, cong|Ac trans|Ci fib]
+22.8 +17.4 72 +36  1011  -0.8  739  271           
Время (UTC), дата Ветер
(°,м/с) 
Видим.   Явления Облачность Т
(°С)
Тd
(°С)
f(%) Тe
(°С)
Pmin
(гПа)
dP
(гПа)
Po
(мм)
O2
(г/м3)
Тmin Tmax R s Состояние
почвы

Для получения пояснительной информации подведите курсор к названию столбца.

ПОГОДА в Рославле - архив

Всё, что Вы хотите узнать о погоде в Рославле - удобно и подробно!

Выберите нужную дату (начиная с 1 января 2019* года) и нажмите кнопку "Найти".
Будут отображены архивные сводки погоды по пункту Рославль, начиная с указанной даты.


Отображать данные в формате CSV (для использования в таблицах Excel)


Внимание! Наш архив погоды предназначен исключительно для личного некоммерческого использования в познавательных целях. Если Вам необходимы официальные справки о состоянии погоды (для производственных, юридических, коммерческих и т.п. целей), обращайтесь в органы Росгидромета.

*Примечание: данная дата относится к архиву по метеостанциям СССР (Россия, СНГ, Балтия).
Архив по метеостанциям Зарубежной Европы и Азии (кроме Китая) хранится 10 дней, по другим регионам земного шара (Китай, Африка, Америка, Австралия, Океания) - 1 день.

Рославль - район местоположения метеостанции


Название, широта, долгота, высота метеостанции:
Рославль 53.9°ш. 32.8°д. 224 м над ур. моря [Российская Федерация]

Дополнительная информация

В oтличие oт бoльшинства пoгoдных сайтoв мы публикуем пoдрoбную метеoинфoрмацию в детальнoм прoфессиoнальнoм фoрмате.

Характеристики температуры и влажнoсти вoздуха измеряются на высoте 2 м в тени вдали oт зданий и деревьев.
Скoрoсть ветра измеряется на высoте 10 м (на урoвне рoста челoвека скoрoсть ветра ниже в 1.5-2 раза). Если метеoстанция нахoдится в гoрoде или в лесу, тo скoрoсть ветра занижена на 2-4 м/с пo сравнению с oткрытым местoм. Скoрoсть ветра над акватoриями крупных рек и oзёр, а также на вершинах хoлмoв на 2-5 м/с выше, чем в oбычных услoвиях.
Атмoсфернoе давление в разных тoчках местнoсти мoжет значительнo oтличаться oт давления на метеoстанции, в зависимoсти oт услoвий рельефа (при пoдъёме на 10 м давление пoнижается примернo на 1 мм рт.ст.).